This is the latest recevied weather packets stored in our database for station/object KB3FKJ. If no packets are shown the sender has not sent any weather packets the latest 10 day(s).
| Time | Temp. | Humidity | Pressure | Rain* | Wind** | Luminosity | Snow |
|---|---|---|---|---|---|---|---|
| 1777410639 | 10° C | 92% | 1016.3 hPa | 0 mm | - | 25 W/m² | - |
| 1777410334 | 10° C | 92% | 1016.2 hPa | 0 mm | - | 32 W/m² | - |
| 1777410028 | 10° C | 92% | 1016.2 hPa | 0 mm | - | 41 W/m² | - |
| 1777409727 | 10° C | 91% | 1016.3 hPa | 0 mm | - | 33 W/m² | - |
| 1777409425 | 10° C | 91% | 1016.1 hPa | 0 mm | - | 33 W/m² | - |
| 1777409121 | 10° C | 91% | 1016.1 hPa | 0 mm | - | 41 W/m² | - |
| 1777408817 | 10° C | 91% | 1016.1 hPa | 0 mm | - | 36 W/m² | - |
| 1777408513 | 10° C | 92% | 1016.1 hPa | 0 mm | - | 36 W/m² | - |
| 1777408213 | 10° C | 92% | 1016.1 hPa | 0 mm | - | 39 W/m² | - |
| 1777407909 | 10° C | 91% | 1016.2 hPa | 0 mm | - | 52 W/m² | - |
| 1777407606 | 10° C | 92% | 1016.2 hPa | 0 mm | - | 51 W/m² | - |
| 1777407305 | 10° C | 91% | 1016.2 hPa | 0 mm | - | 63 W/m² | - |
| 1777407001 | 10° C | 92% | 1016.1 hPa | 0 mm | - | 48 W/m² | - |
| 1777406696 | 10° C | 92% | 1016.3 hPa | 0 mm | - | 54 W/m² | - |
| 1777406392 | 10° C | 92% | 1016.3 hPa | 0 mm | - | 56 W/m² | - |
| 1777406090 | 10° C | 92% | 1016.3 hPa | 0 mm | - | 49 W/m² | - |
| 1777405787 | 10° C | 92% | 1016.5 hPa | 0 mm | - | 39 W/m² | - |
| 1777405483 | 9.44° C | 91% | 1016.5 hPa | 0 mm | - | 39 W/m² | - |
| 1777405181 | 10° C | 92% | 1016.6 hPa | 0 mm | - | 37 W/m² | - |
| 1777404878 | 10° C | 92% | 1016.5 hPa | 0 mm | - | 33 W/m² | - |
| 1777404576 | 10° C | 92% | 1016.6 hPa | 0 mm | - | 49 W/m² | - |
| 1777404273 | 10° C | 92% | 1016.6 hPa | 0 mm | - | 36 W/m² | - |
| 1777403968 | 9.44° C | 92% | 1016.4 hPa | 0 mm | - | 54 W/m² | - |
| 1777403667 | 9.44° C | 92% | 1016.6 hPa | 0 mm | - | 35 W/m² | - |
| 1777403361 | 10° C | 92% | 1016.7 hPa | 0 mm | - | 56 W/m² | - |
* Rain latest hour (hover to see other rain measurements)
** Current wind speed in m/s (hover to see current wind gust speed)